Weather History for Grand Marais Airport, MN

Change the Weather History Date:

Sunday, June 8, 2014

  Actual Average Record
Temperature  
Mean Temperature 48 °F -  
Max Temperature 62 °F 64 °F 77 °F (2002)
Min Temperature 35 °F 44 °F 33 °F (2001)
Degree Days  
Heating Degree Days 16    
Moisture  
Dew Point 33 °F    
Average Humidity 56    
Maximum Humidity 87    
Minimum Humidity 29    
Precipitation  
Precipitation 0.00 in - - ()
Sea Level Pressure  
Sea Level Pressure 30.10 in    
Wind  
Wind Speed 4 mph (West)    
Max Wind Speed 10 mph    
Max Gust Speed 17 mph    
Visibility 10 miles    
Events      
Averages and records for this station are not official NWS values.
T = Trace of Precipitation, MM = Missing Value Source: NWS Daily Summary

Daily Weather History Graph

Daily Weather History Graph

Search for Another Location

Airport:

Trip Planner

Search our weather history database for the weather conditions in past years. The results will help you decide how hot, cold, wet, or windy it might be!

Date:

Astronomy

Jun. 08, 2014 Rise Set
Actual Time 5:03 AM CDT 8:58 PM CDT
Civil Twilight 4:23 AM CDT 9:38 PM CDT
Nautical Twilight 3:27 AM CDT 10:34 PM CDT
Astronomical Twilight 2:01 AM CDT 12:01 AM CDT
Moon 3:57 PM CDT (6/8) 2:17 AM CDT (6/8)
Length of Visible Light 17h 15m
Length of Day
15h 54m
Waxing Gibbous, 77% of the Moon is Illuminated
Jun 8
Waxing Gibbous
Jun 12
Full
Jun 19
Last Quarter
Jun 27
New
Jul 5
First Quarter

Hourly Weather History & Observations

Time (CDT) Temp. Windchill Dew Point Humidity Pressure Visibility Wind Dir Wind Speed Gust Speed Precip Events Conditions
12:14 AM 42.8 °F - 39.2 °F 87% 30.06 in 10.0 mi Calm Calm - N/A   Clear
12:34 AM 39.2 °F 35.9 °F 35.6 °F 87% 30.05 in 10.0 mi WNW 4.6 mph - N/A   Clear
12:54 AM 37.4 °F 34.9 °F 33.8 °F 87% 30.05 in 10.0 mi WNW 3.5 mph - N/A   Clear
1:13 AM 37.4 °F 33.8 °F 33.8 °F 87% 30.05 in 10.0 mi NW 4.6 mph - N/A   Clear
1:33 AM 37.4 °F 34.9 °F 33.8 °F 87% 30.05 in 10.0 mi NW 3.5 mph - N/A   Clear
1:54 AM 39.2 °F 35.9 °F 35.6 °F 87% 30.05 in 10.0 mi NW 4.6 mph - N/A   Clear
2:14 AM 39.2 °F 37.0 °F 35.6 °F 87% 30.05 in 10.0 mi WNW 3.5 mph - N/A   Clear
2:33 AM 39.2 °F 35.9 °F 35.6 °F 87% 30.05 in 10.0 mi WNW 4.6 mph - N/A   Clear
2:53 AM 44.6 °F 42.2 °F 33.8 °F 66% 30.05 in 10.0 mi WNW 4.6 mph - N/A   Clear
3:13 AM 39.2 °F 37.0 °F 33.8 °F 81% 30.05 in 10.0 mi NW 3.5 mph - N/A   Clear
3:54 AM 41.0 °F 37.1 °F 33.8 °F 76% 30.06 in 10.0 mi NNW 5.8 mph - N/A   Clear
4:13 AM 42.8 °F 40.1 °F 33.8 °F 70% 30.06 in 10.0 mi NW 4.6 mph - N/A   Clear
4:34 AM 42.8 °F 40.1 °F 33.8 °F 70% 30.06 in 10.0 mi NW 4.6 mph - N/A   Clear
4:54 AM 37.4 °F 33.8 °F 32.0 °F 81% 30.07 in 10.0 mi NW 4.6 mph - N/A   Clear
5:13 AM 35.6 °F 30.7 °F 30.2 °F 81% 30.08 in 10.0 mi NNW 5.8 mph - N/A   Clear
5:34 AM 37.4 °F 32.8 °F 33.8 °F 87% 30.08 in 10.0 mi North 5.8 mph - N/A   Clear
5:54 AM 39.2 °F 35.0 °F 33.8 °F 81% 30.09 in 10.0 mi NNW 5.8 mph - N/A   Clear
6:14 AM 44.6 °F 41.4 °F 37.4 °F 76% 30.10 in 10.0 mi NNW 5.8 mph - N/A   Clear
6:34 AM 46.4 °F 44.3 °F 37.4 °F 71% 30.10 in 10.0 mi NNW 4.6 mph - N/A   Clear
6:54 AM 46.4 °F 44.3 °F 39.2 °F 76% 30.11 in 10.0 mi NNW 4.6 mph - N/A   Clear
7:13 AM 48.2 °F - 39.2 °F 71% 30.11 in 10.0 mi NNW 4.6 mph - N/A   Clear
7:33 AM 51.8 °F - 39.2 °F 62% 30.11 in 10.0 mi NNW 3.5 mph - N/A   Clear
7:53 AM 51.8 °F - 37.4 °F 58% 30.12 in 10.0 mi North 8.1 mph - N/A   Clear
8:14 AM 53.6 °F - 35.6 °F 51% 30.12 in 10.0 mi North 6.9 mph - N/A   Clear
8:34 AM 55.4 °F - 33.8 °F 44% 30.12 in 10.0 mi NNW 5.8 mph - N/A   Clear
8:53 AM 55.4 °F - 33.8 °F 44% 30.12 in 10.0 mi NW 5.8 mph - N/A   Clear
9:14 AM 57.2 °F - 30.2 °F 36% 30.12 in 10.0 mi North 4.6 mph - N/A   Clear
9:33 AM 57.2 °F - 32.0 °F 38% 30.12 in 10.0 mi NNW 4.6 mph - N/A   Clear
9:54 AM 57.2 °F - 30.2 °F 36% 30.13 in 10.0 mi NE 8.1 mph - N/A   Clear
1:14 PM 62.6 °F - 33.8 °F 34% 30.13 in 10.0 mi South 8.1 mph - N/A   Clear
1:33 PM 60.8 °F - 30.2 °F 31% 30.14 in 10.0 mi South 8.1 mph - N/A   Clear
1:53 PM 60.8 °F - 32.0 °F 34% 30.14 in 10.0 mi SSE 5.8 mph - N/A   Clear
2:14 PM 60.8 °F - 30.2 °F 31% 30.14 in 10.0 mi South 8.1 mph 17.3 mph N/A   Clear
2:33 PM 60.8 °F - 30.2 °F 31% 30.13 in 10.0 mi SSE 10.4 mph - N/A   Clear
2:53 PM 60.8 °F - 30.2 °F 31% 30.13 in 10.0 mi South 10.4 mph - N/A   Clear
3:13 PM 60.8 °F - 32.0 °F 34% 30.12 in 10.0 mi South 9.2 mph - N/A   Clear
3:34 PM 60.8 °F - 32.0 °F 34% 30.12 in 10.0 mi South 8.1 mph - N/A   Clear
3:53 PM 60.8 °F - 28.4 °F 29% 30.12 in 10.0 mi South 8.1 mph - N/A   Clear
4:13 PM 60.8 °F - 30.2 °F 31% 30.11 in 10.0 mi SSE 6.9 mph - N/A   Clear
4:34 PM 60.8 °F - 30.2 °F 31% 30.11 in 10.0 mi South 6.9 mph - N/A   Clear
4:54 PM 60.8 °F - 30.2 °F 31% 30.11 in 10.0 mi South 8.1 mph - N/A   Clear
5:13 PM 60.8 °F - 28.4 °F 29% 30.11 in 10.0 mi South 5.8 mph - N/A   Clear
5:33 PM 59.0 °F - 30.2 °F 34% 30.11 in 10.0 mi South 8.1 mph - N/A   Clear
5:54 PM 60.8 °F - 30.2 °F 31% 30.10 in 10.0 mi South 6.9 mph - N/A   Clear
6:14 PM 59.0 °F - 28.4 °F 31% 30.11 in 10.0 mi SSW 9.2 mph - N/A   Clear
6:34 PM 59.0 °F - 30.2 °F 34% 30.10 in 10.0 mi South 6.9 mph - N/A   Clear
6:53 PM 59.0 °F - 28.4 °F 31% 30.10 in 10.0 mi South 3.5 mph - N/A   Clear
7:13 PM 57.2 °F - 28.4 °F 33% 30.10 in 10.0 mi South 5.8 mph - N/A   Clear
7:33 PM 57.2 °F - 32.0 °F 38% 30.10 in 10.0 mi Calm Calm - N/A   Clear
7:54 PM 55.4 °F - 30.2 °F 38% 30.10 in 10.0 mi South 4.6 mph - N/A   Clear
8:13 PM 53.6 °F - 30.2 °F 41% 30.11 in 10.0 mi South 3.5 mph - N/A   Clear
8:33 PM 51.8 °F - 30.2 °F 44% 30.11 in 10.0 mi Calm Calm - N/A   Clear
8:53 PM 48.2 °F - 33.8 °F 58% 30.11 in 10.0 mi Calm Calm - N/A   Clear
9:34 PM 46.4 °F - 33.8 °F 62% 30.11 in 10.0 mi Calm Calm - N/A   Clear
9:53 PM 46.4 °F 45.2 °F 35.6 °F 66% 30.11 in 10.0 mi South 3.5 mph - N/A   Clear
10:13 PM 46.4 °F 45.2 °F 35.6 °F 66% 30.10 in 10.0 mi South 3.5 mph - N/A   Clear
10:34 PM 44.6 °F - 35.6 °F 71% 30.10 in 10.0 mi Calm Calm - N/A   Clear
10:53 PM 44.6 °F - 33.8 °F 66% 30.11 in 10.0 mi Calm Calm - N/A   Clear
11:10 PM 44.6 °F - 35.6 °F 71% 30.10 in 10.0 mi Calm Calm - N/A   Clear
11:33 PM 42.8 °F - 35.6 °F 76% 30.10 in 10.0 mi Calm Calm - N/A   Clear
11:53 PM 42.8 °F - 35.6 °F 76% 30.10 in 10.0 mi Calm Calm - N/A   Clear